This is the latest recevied weather packets stored in our database for station/object WX7EM. If no packets are shown the sender has not sent any weather packets the latest 10 day(s).
| Time | Temp. | Humidity | Pressure | Rain* | Wind** | Luminosity | Snow |
|---|---|---|---|---|---|---|---|
| 1778180487 | 16.11° C | 73% | 1019.2 hPa | 0 mm | - | 282 W/m² | - |
| 1778180185 | 16.11° C | 72% | 1019.1 hPa | 0 mm | - | 289 W/m² | - |
| 1778179880 | 17.22° C | 71% | 1019.2 hPa | 0 mm | - | 330 W/m² | - |
| 1778179579 | 16.67° C | 70% | 1019.1 hPa | 0 mm | - | 455 W/m² | - |
| 1778179276 | 16.67° C | 71% | 1019.2 hPa | 0 mm | - | 419 W/m² | - |
| 1778178972 | 16.67° C | 73% | 1019.2 hPa | 0 mm | - | 385 W/m² | - |
| 1778178669 | 16.11° C | 72% | 1019.4 hPa | 0 mm | - | 616 W/m² | - |
| 1778178365 | 16.11° C | 73% | 1019.4 hPa | 0 mm | - | 601 W/m² | - |
| 1778178061 | 16.67° C | 73% | 1019.4 hPa | 0 mm | - | 561 W/m² | - |
| 1778177759 | 16.11° C | 75% | 1019.5 hPa | 0 mm | - | 533 W/m² | - |
| 1778177455 | 16.11° C | 75% | 1019.5 hPa | 0 mm | - | 420 W/m² | - |
| 1778177151 | 16.11° C | 76% | 1019.6 hPa | 0 mm | - | 521 W/m² | - |
| 1778176848 | 15.56° C | 75% | 1019.5 hPa | 0 mm | - | 646 W/m² | - |
| 1778176544 | 15.56° C | 76% | 1019.5 hPa | 0 mm | - | 412 W/m² | - |
| 1778176242 | 15° C | 78% | 1019.5 hPa | 0 mm | - | 545 W/m² | - |
| 1778175939 | 14.44° C | 80% | 1019.4 hPa | 0 mm | - | 454 W/m² | - |
| 1778175637 | 13.89° C | 80% | 1019.7 hPa | 0 mm | - | 280 W/m² | - |
| 1778175333 | 14.44° C | 80% | 1019.8 hPa | 0 mm | - | 261 W/m² | - |
| 1778175031 | 14.44° C | 80% | 1019.7 hPa | 0 mm | - | 250 W/m² | - |
| 1778174726 | 14.44° C | 81% | 1019.6 hPa | 0 mm | - | 236 W/m² | - |
| 1778174424 | 13.89° C | 82% | 1019.7 hPa | 0 mm | - | 237 W/m² | - |
| 1778174119 | 13.89° C | 82% | 1019.8 hPa | 0 mm | - | 234 W/m² | - |
| 1778173817 | 13.89° C | 83% | 1019.5 hPa | 0 mm | - | 209 W/m² | - |
| 1778173513 | 13.89° C | 82% | 1019.8 hPa | 0 mm | - | 227 W/m² | - |
| 1778173210 | 13.89° C | 83% | 1019.4 hPa | 0 mm | - | 227 W/m² | - |
* Rain latest hour (hover to see other rain measurements)
** Current wind speed in m/s (hover to see current wind gust speed)